N7MLR Weather Reports


time (UTC)temp
F
wind
direction
speed
knots
gust
knots
rain 1hr
in
rain 24hr
in
rain mn
in
humidity
%
barometer
mb
20260904222008 91 214 0.9 1.7 0.00 0.00 0.00 56 1012.4
20260904221503 91 217 2.6 2.6 0.00 0.00 0.00 55 1012.7
20260904220957 91 206 0.0 0.9 0.00 0.00 0.00 53 1012.7
20260904220457 90 198 0.9 1.7 0.00 0.00 0.00 55 1012.5
20260904215952 91 208 0.9 0.9 0.00 0.00 0.00 56 1012.6
20260904215448 92 225 0.0 0.0 0.00 0.00 0.00 55 1012.5
20260904214943 92 228 0.9 0.9 0.00 0.00 0.00 55 1012.5
20260904214438 92 209 1.7 1.7 0.00 0.00 0.00 56 1012.6
20260904213933 91 207 0.0 0.0 0.00 0.00 0.00 54 1012.7
20260904213426 91 202 0.9 1.7 0.00 0.00 0.00 55 1012.8
20260904212923 91 200 0.0 0.9 0.00 0.00 0.00 55 1013.0
20260904212422 91 191 0.9 1.7 0.00 0.00 0.00 56 1013.1
20260904211918 91 200 0.9 1.7 0.00 0.00 0.00 55 1013.0
20260904211413 91 221 0.9 0.9 0.00 0.00 0.00 57 1013.2
20260904210908 90 216 0.9 0.9 0.00 0.00 0.00 58 1013.3
20260904210407 91 221 1.7 2.6 0.00 0.00 0.00 57 1013.3
20260904205903 91 288 0.9 1.7 0.00 0.00 0.00 56 1013.3
20260904205359 91 208 0.0 0.0 0.00 0.00 0.00 58 1013.0
20260904204855 91 198 0.9 1.7 0.00 0.00 0.00 58 1013.3
20260904204351 92 204 0.0 0.9 0.00 0.00 0.00 56 1013.3
20260904203847 92 209 0.9 1.7 0.00 0.00 0.00 57 1013.2
20260904203343 91 147 2.6 2.6 0.00 0.00 0.00 59 1013.3
20260904202839 92 225 0.0 0.9 0.00 0.00 0.00 55 1013.3
20260904202335 93 202 0.0 0.9 0.00 0.00 0.00 55 1013.5
20260904201831 93 195 0.9 0.9 0.00 0.00 0.00 55 1013.3
20260904201330 91 210 0.9 1.7 0.00 0.00 0.00 58 1013.4
20260904200826 91 205 0.9 1.7 0.00 0.00 0.00 58 1013.5
20260904200324 92 236 0.9 1.7 0.00 0.00 0.00 58 1013.7
20260904195819 92 190 0.9 1.7 0.00 0.00 0.00 58 1013.8
20260904195317 92 197 1.7 1.7 0.00 0.00 0.00 56 1013.6
20260904194812 91 209 1.7 1.7 0.00 0.00 0.00 59 1014.0
20260904194312 91 198 0.0 0.9 0.00 0.00 0.00 59 1013.8
20260904193807 91 195 1.7 1.7 0.00 0.00 0.00 60 1013.7
20260904193303 91 211 2.6 4.3 0.00 0.00 0.00 60 1014.0
20260904192757 91 200 0.9 0.9 0.00 0.00 0.00 60 1013.8
20260904192253 89 205 0.0 0.9 0.00 0.00 0.00 62 1014.1
20260904191750 89 187 0.9 0.9 0.00 0.00 0.00 62 1014.2
20260904191246 89 238 0.9 0.9 0.00 0.00 0.00 63 1014.1
20260904190742 89 216 1.7 2.6 0.00 0.00 0.00 62 1014.1
20260904190237 89 194 0.0 0.0 0.00 0.00 0.00 63 1014.2
20260904185734 90 196 0.0 0.9 0.00 0.00 0.00 62 1014.3
20260904185228 91 202 0.0 0.9 0.00 0.00 0.00 61 1014.3
20260904184727 90 199 0.0 0.9 0.00 0.00 0.00 60 1014.4
20260904184223 91 203 0.9 0.9 0.00 0.00 0.00 62 1014.4
20260904183718 91 199 0.0 0.9 0.00 0.00 0.00 62 1014.4
20260904183213 92 354 0.9 1.7 0.00 0.00 0.00 60 1014.4
20260904182708 92 193 1.7 1.7 0.00 0.00 0.00 62 1014.5
20260904182203 92 228 0.9 1.7 0.00 0.00 0.00 60 1014.6
20260904181659 90 195 0.0 0.9 0.00 0.00 0.00 63 1014.7
20260904181158 89 195 0.9 0.9 0.00 0.00 0.00 64 1014.6
20260904180654 88 213 0.0 0.0 0.00 0.00 0.00 67 1014.7
20260904180149 89 266 0.9 0.9 0.00 0.00 0.00 66 1014.8
20260904175648 89 185 0.9 0.9 0.00 0.00 0.00 67 1014.8
20260904175146 87 207 0.9 1.7 0.00 0.00 0.00 69 1014.9
20260904174642 87 231 0.9 0.9 0.00 0.00 0.00 70 1015.0
20260904174138 87 193 1.7 1.7 0.00 0.00 0.00 69 1014.9
20260904173633 87 200 0.9 0.9 0.00 0.00 0.00 70 1015.1
20260904173128 87 208 1.7 1.7 0.00 0.00 0.00 70 1014.9
20260904172625 86 205 0.0 0.0 0.00 0.00 0.00 70 1014.9
20260904172124 86 196 0.9 0.9 0.00 0.00 0.00 71 1015.0
20260904171619 87 232 0.0 0.9 0.00 0.00 0.00 71 1015.3
20260904171115 85 191 0.0 0.9 0.00 0.00 0.00 73 1014.9
20260904170610 86 191 1.7 1.7 0.00 0.00 0.00 72 1015.0
20260904170106 87 213 0.9 0.9 0.00 0.00 0.00 71 1015.2
20260904165605 86 160 1.7 1.7 0.00 0.00 0.00 72 1015.0
20260904165104 86 185 2.6 2.6 0.00 0.00 0.00 73 1015.2
20260904164559 87 213 2.6 2.6 0.00 0.00 0.00 73 1015.0
20260904164055 86 204 0.9 0.9 0.00 0.00 0.00 74 1014.9
20260904163555 86 218 0.9 0.9 0.00 0.00 0.00 75 1015.1
20260904163050 86 190 1.7 1.7 0.00 0.00 0.00 74 1015.3
20260904162544 84 46 0.9 1.7 0.00 0.00 0.00 78 1015.4
20260904162040 83 225 0.9 0.9 0.00 0.00 0.00 79 1015.3
20260904161534 83 220 0.0 0.0 0.00 0.00 0.00 81 1015.4
20260904161030 83 224 0.0 0.0 0.00 0.00 0.00 81 1015.4
20260904160525 83 262 1.7 1.7 0.00 0.00 0.00 80 1015.6
20260904160022 83 196 0.0 0.0 0.00 0.00 0.00 81 1015.6
20260904155521 82 215 0.0 0.0 0.00 0.00 0.00 82 1015.5
20260904155021 82 198 0.0 0.0 0.00 0.00 0.00 82 1015.5
20260904154514 82 213 0.0 0.0 0.00 0.00 0.00 83 1015.5
20260904154009 82 217 0.0 0.0 0.00 0.00 0.00 83 1015.5
20260904153509 81 213 0.0 0.0 0.00 0.00 0.00 84 1015.5
20260904153006 81 221 0.0 0.9 0.00 0.00 0.00 85 1015.5
20260904152501 81 235 0.0 0.9 0.00 0.00 0.00 85 1015.4
20260904151955 81 228 0.9 0.9 0.00 0.00 0.00 86 1015.4
20260904151450 80 219 0.0 0.9 0.00 0.00 0.00 86 1015.3
20260904150945 80 219 0.0 0.0 0.00 0.00 0.00 87 1015.1
20260904150440 80 210 0.0 0.0 0.00 0.00 0.00 87 1015.2
20260904145938 80 213 0.9 0.9 0.00 0.00 0.00 87 1015.3
20260904145434 80 210 0.9 0.9 0.00 0.00 0.00 88 1015.1
20260904144929 80 209 0.0 0.0 0.00 0.00 0.00 89 1015.2
20260904144425 79 209 0.0 0.9 0.00 0.00 0.00 89 1015.4
20260904143921 79 207 0.0 0.9 0.00 0.00 0.00 90 1015.1
20260904143417 79 210 0.0 0.0 0.00 0.00 0.00 90 1015.3
20260904142913 80 213 0.0 0.0 0.00 0.00 0.00 89 1015.2
20260904142409 80 212 0.0 0.9 0.00 0.00 0.00 89 1015.1
20260904141903 80 204 0.9 0.9 0.00 0.00 0.00 90 1015.5
20260904141358 79 211 0.0 0.9 0.00 0.00 0.00 92 1015.1
20260904140855 78 219 0.0 0.0 0.00 0.00 0.00 92 1014.9
20260904140349 79 212 0.9 0.9 0.00 0.00 0.00 91 1015.0
20260904135848 79 233 0.0 0.9 0.00 0.00 0.00 91 1014.7
20260904135343 78 220 0.0 0.9 0.00 0.00 0.00 91 1014.9
20260904134839 78 214 0.9 0.9 0.00 0.00 0.00 91 1014.7
20260904134334 78 226 0.9 0.9 0.00 0.00 0.00 91 1014.6
20260904133834 78 222 0.0 0.0 0.00 0.00 0.00 91 1014.6
20260904133329 78 201 0.9 0.9 0.00 0.00 0.00 91 1014.6
20260904132829 78 233 1.7 1.7 0.00 0.00 0.00 91 1014.6
20260904132324 78 204 0.9 1.7 0.00 0.00 0.00 91 1014.7
20260904131824 78 223 0.0 0.9 0.00 0.00 0.00 91 1014.5
20260904131320 79 220 0.9 1.7 0.00 0.00 0.00 90 1014.5
20260904130820 79 220 0.9 0.9 0.00 0.00 0.00 89 1014.6
20260904130319 79 210 0.0 0.9 0.00 0.00 0.00 88 1014.6
20260904125815 79 217 0.9 0.9 0.00 0.00 0.00 89 1014.3
20260904125311 79 202 0.9 0.9 0.00 0.00 0.00 89 1014.3
20260904124810 78 204 0.9 1.7 0.00 0.00 0.00 90 1014.3
20260904124307 78 206 0.9 0.9 0.00 0.00 0.00 91 1014.2
20260904123801 77 208 0.0 0.0 0.00 0.00 0.00 93 1014.2
20260904123257 77 222 0.0 0.0 0.00 0.00 0.00 93 1014.1
20260904122751 77 208 0.9 0.9 0.00 0.00 0.00 93 1014.1
20260904122251 77 205 0.0 0.0 0.00 0.00 0.00 93 1013.7
20260904121746 77 217 0.9 1.7 0.00 0.00 0.00 93 1013.8
20260904121243 77 225 0.0 0.9 0.00 0.00 0.00 93 1013.8
20260904120739 77 231 0.0 0.0 0.00 0.00 0.00 93 1014.0
20260904120234 77 230 0.0 0.0 0.00 0.00 0.00 93 1014.0
20260904115729 77 226 0.9 1.7 0.00 0.00 0.00 92 1013.6
20260904115224 77 227 0.0 0.9 0.00 0.00 0.00 92 1013.5
20260904114719 77 228 0.0 0.0 0.00 0.00 0.00 92 1013.4
20260904114213 77 227 0.0 0.0 0.00 0.00 0.00 92 1013.4
20260904113708 77 224 0.0 0.0 0.00 0.00 0.00 92 1013.1
20260904113207 77 224 0.0 0.0 0.00 0.00 0.00 91 1013.2
20260904112702 77 224 0.0 0.0 0.00 0.00 0.00 91 1013.4
20260904112158 77 224 0.0 0.9 0.00 0.00 0.00 90 1013.4
20260904111654 78 224 0.0 0.0 0.00 0.00 0.00 89 1013.3
20260904111149 78 207 0.0 0.0 0.00 0.00 0.00 88 1013.2
20260904110644 79 209 0.0 0.9 0.00 0.00 0.00 87 1013.2
20260904110143 79 212 0.0 0.9 0.00 0.00 0.00 87 1013.0
20260904105638 78 207 0.0 0.0 0.00 0.00 0.00 88 1013.3
20260904105133 78 209 0.0 0.9 0.00 0.00 0.00 90 1013.4
20260904104629 77 205 0.0 0.0 0.00 0.00 0.00 91 1013.6
20260904104124 77 224 0.0 0.0 0.00 0.00 0.00 91 1013.6
20260904103620 77 223 0.0 0.0 0.00 0.00 0.00 91 1013.2
20260904103116 77 224 0.0 0.0 0.00 0.00 0.00 91 1013.2
20260904102612 77 227 0.0 0.0 0.00 0.00 0.00 91 1013.1
20260904102106 77 225 0.0 0.0 0.00 0.00 0.00 91 1013.3
20260904101603 77 219 0.0 0.0 0.00 0.00 0.00 91 1013.3
20260904101058 77 214 0.0 0.0 0.00 0.00 0.00 91 1013.0
20260904100554 77 213 0.0 0.0 0.00 0.00 0.00 91 1013.0
20260904100049 77 227 0.0 0.9 0.00 0.00 0.00 91 1013.0
20260904095544 77 222 0.0 0.0 0.00 0.00 0.00 91 1013.1
20260904095039 77 219 0.0 0.0 0.00 0.00 0.00 90 1012.9
20260904094534 77 223 0.0 0.0 0.00 0.00 0.00 90 1013.0
20260904094029 77 228 0.9 0.9 0.00 0.00 0.00 90 1013.2
20260904093526 78 210 0.0 0.0 0.00 0.00 0.00 88 1013.2
20260904093020 79 217 0.0 0.0 0.00 0.00 0.00 87 1012.9
20260904092516 79 206 0.9 0.9 0.00 0.00 0.00 86 1013.0
20260904092013 79 216 0.0 0.0 0.00 0.00 0.00 86 1013.1
20260904091508 79 210 0.0 0.0 0.00 0.00 0.00 86 1013.0
20260904091008 78 214 0.0 0.9 0.00 0.00 0.00 88 1012.8
20260904090503 77 213 0.0 0.9 0.00 0.00 0.00 90 1012.9
20260904090004 76 215 0.0 0.0 0.00 0.00 0.00 91 1013.0
20260904085459 77 215 0.0 0.0 0.00 0.00 0.00 91 1013.0
20260904084953 77 215 0.0 0.0 0.00 0.00 0.00 90 1013.0
20260904084449 77 214 0.0 0.0 0.00 0.00 0.00 90 1012.9
20260904083944 77 214 0.0 0.0 0.00 0.00 0.00 90 1012.7
20260904083441 77 213 0.0 0.0 0.00 0.00 0.00 90 1012.9
20260904082936 77 220 0.0 0.0 0.00 0.00 0.00 89 1012.9
20260904082431 77 217 0.0 0.0 0.00 0.00 0.00 89 1013.0
20260904081926 77 217 0.0 0.0 0.00 0.00 0.00 89 1012.9
20260904081421 78 216 0.0 0.0 0.00 0.00 0.00 88 1013.1
20260904080917 78 214 0.0 0.9 0.00 0.00 0.00 87 1013.1
20260904080413 79 218 0.0 0.9 0.00 0.00 0.00 86 1013.1
20260904075909 80 204 0.9 1.7 0.00 0.00 0.00 83 1013.2
20260904075404 80 205 0.9 0.9 0.00 0.00 0.00 84 1013.1
20260904074902 80 204 0.0 0.9 0.00 0.00 0.00 84 1013.4
20260904074358 80 204 0.9 0.9 0.00 0.00 0.00 84 1013.2
20260904073853 80 202 0.9 1.7 0.00 0.00 0.00 85 1013.2
20260904073349 78 212 0.9 0.9 0.00 0.00 0.00 87 1013.2
20260904072845 78 206 0.0 0.9 0.00 0.00 0.00 88 1013.3
20260904072345 78 210 0.9 0.9 0.00 0.00 0.00 88 1013.4
20260904071840 78 209 0.0 0.9 0.00 0.00 0.00 88 1013.3
20260904071336 78 208 0.0 0.0 0.00 0.00 0.00 87 1013.6
20260904070831 79 207 0.0 0.9 0.00 0.00 0.00 87 1013.6
20260904070329 79 221 0.9 0.9 0.00 0.00 0.00 87 1013.6
20260904065824 79 257 0.0 0.9 0.00 0.00 0.00 87 1013.6
20260904065320 79 211 0.9 0.9 0.00 0.00 0.00 86 1013.7
20260904064815 79 206 0.0 0.9 0.00 0.00 0.00 86 1013.7
20260904064311 79 215 0.9 0.9 0.00 0.00 0.00 85 1013.7
20260904063807 80 207 0.9 1.7 0.00 0.00 0.00 84 1013.7
20260904063303 81 208 1.7 2.6 0.00 0.00 0.00 82 1013.6
20260904062758 81 205 0.9 0.9 0.00 0.00 0.00 82 1013.8
20260904062254 81 207 0.0 0.0 0.00 0.00 0.00 82 1014.0
20260904061749 81 209 0.9 0.9 0.00 0.00 0.00 81 1013.6
20260904061245 81 210 0.0 0.9 0.00 0.00 0.00 81 1014.0
20260904060742 81 195 1.7 1.7 0.00 0.00 0.00 82 1013.8
20260904060237 79 203 0.0 0.9 0.00 0.00 0.00 84 1013.6
20260904055732 80 214 0.9 0.9 0.00 0.00 0.00 84 1014.0
20260904055227 79 217 2.6 4.3 0.00 0.00 0.00 83 1013.8
20260904054722 80 220 0.0 0.9 0.00 0.00 0.00 83 1013.8
20260904054219 80 234 0.9 0.9 0.00 0.00 0.00 83 1013.7
20260904053714 80 216 0.9 0.9 0.00 0.00 0.00 82 1013.5
20260904053213 80 208 0.9 1.7 0.00 0.00 0.00 82 1013.5
20260904052710 80 214 0.9 1.7 0.00 0.00 0.00 81 1013.6
20260904052205 80 207 2.6 4.3 0.00 0.00 0.00 81 1013.5
20260904051702 81 55 2.6 2.6 0.00 0.00 0.00 80 1013.4
20260904051156 82 131 0.9 1.7 0.00 0.00 0.00 78 1013.2
20260904050652 82 216 0.9 0.9 0.00 0.00 0.00 77 1013.4
20260904050148 83 101 2.6 2.6 0.00 0.00 0.00 76 1013.4
20260904045648 82 213 0.0 0.0 0.00 0.00 0.00 76 1013.3
20260904045148 82 226 0.9 0.9 0.00 0.00 0.00 76 1013.4
20260904044643 82 200 1.7 1.7 0.00 0.00 0.00 75 1013.6
20260904044140 82 271 1.7 1.7 0.00 0.00 0.00 75 1013.2
20260904043636 82 280 1.7 1.7 0.00 0.00 0.00 75 1013.2
20260904043131 82 216 0.9 1.7 0.00 0.00 0.00 76 1013.3
20260904042627 82 200 1.7 1.7 0.00 0.00 0.00 75 1013.3
20260904042123 82 219 1.7 2.6 0.00 0.00 0.00 74 1013.3
20260904041618 82 229 2.6 4.3 0.00 0.00 0.00 73 1013.5
20260904041114 82 195 0.9 1.7 0.00 0.00 0.00 72 1013.5
20260904040609 83 37 1.7 2.6 0.00 0.00 0.00 70 1013.6
20260904040106 83 231 1.7 1.7 0.00 0.00 0.00 69 1013.5
20260904035601 83 197 2.6 2.6 0.00 0.00 0.00 68 1013.4
20260904035101 85 340 1.7 2.6 0.00 0.00 0.00 66 1013.4
20260904034555 85 205 1.7 1.7 0.00 0.00 0.00 65 1013.4
20260904034050 85 29 1.7 1.7 0.00 0.00 0.00 65 1013.2
20260904033547 85 300 0.9 1.7 0.00 0.00 0.00 65 1012.9
20260904033044 84 301 1.7 1.7 0.00 0.00 0.00 67 1012.8
20260904032539 85 211 0.0 0.9 0.00 0.00 0.00 67 1012.7
20260904032038 83 204 1.7 1.7 0.00 0.00 0.00 69 1012.8
20260904031538 83 276 0.9 0.9 0.00 0.00 0.00 71 1012.4
20260904031034 83 294 0.9 2.6 0.00 0.00 0.00 72 1012.5
20260904030530 83 224 0.9 1.7 0.00 0.00 0.00 73 1012.5
20260904030025 83 232 0.0 0.0 0.00 0.00 0.00 73 1012.5
20260904025520 83 232 0.0 0.0 0.00 0.00 0.00 73 1012.4
20260904025015 84 238 0.9 0.9 0.00 0.00 0.00 73 1012.5
20260904024510 84 223 0.9 1.7 0.00 0.00 0.00 72 1012.3
20260904024006 84 235 0.9 1.7 0.00 0.00 0.00 71 1012.4
20260904023502 85 236 0.9 0.9 0.00 0.00 0.00 69 1012.5
20260904022956 85 234 2.6 4.3 0.00 0.00 0.00 70 1012.1
20260904022452 85 213 1.7 1.7 0.00 0.00 0.00 70 1012.2
20260904021949 86 212 0.0 0.9 0.00 0.00 0.00 70 1012.1
20260904021445 85 224 0.0 0.9 0.00 0.00 0.00 70 1012.0
20260904020944 85 223 0.0 0.9 0.00 0.00 0.00 70 1012.0
20260904020440 86 228 0.9 0.9 0.00 0.00 0.00 69 1012.0
20260904015938 86 226 0.9 0.9 0.00 0.00 0.00 69 1012.0
20260904015434 86 221 0.0 0.9 0.00 0.00 0.00 69 1011.7
20260904014932 85 221 0.9 1.7 0.00 0.00 0.00 70 1012.0
20260904014427 85 239 0.9 1.7 0.00 0.00 0.00 70 1012.0
20260904013923 85 253 2.6 4.3 0.00 0.00 0.00 70 1011.7
20260904013419 85 222 0.9 1.7 0.00 0.00 0.00 69 1011.8
20260904012914 85 243 0.9 1.7 0.00 0.00 0.00 69 1011.8
20260904012409 85 220 1.7 1.7 0.00 0.00 0.00 68 1011.5
20260904011908 86 313 2.6 2.6 0.00 0.00 0.00 67 1011.4
20260904011358 86 243 2.6 4.3 0.00 0.00 0.00 66 1011.6
20260904010853 86 243 4.3 7.8 0.00 0.00 0.00 66 1011.5
20260904010350 87 258 4.3 7.0 0.00 0.00 0.00 65 1011.3
20260904005844 87 207 0.9 0.9 0.00 0.00 0.00 64 1011.4
20260904005340 87 264 1.7 4.3 0.00 0.00 0.00 64 1011.3
20260904004835 87 308 2.6 6.1 0.00 0.00 0.00 63 1011.2
20260904004332 87 225 1.7 2.6 0.00 0.00 0.00 63 1011.3
20260904003832 88 264 5.2 8.7 0.00 0.00 0.00 62 1010.9
20260904003328 89 219 3.5 6.1 0.00 0.00 0.00 61 1010.9
20260904002823 89 344 1.7 4.3 0.00 0.00 0.00 61 1010.7
20260904002319 89 231 1.7 4.3 0.00 0.00 0.00 60 1010.9
20260904001818 90 229 2.6 4.3 0.00 0.00 0.00 59 1010.9
20260904001313 90 303 2.6 5.2 0.00 0.00 0.00 57 1011.1
20260904000808 90 268 2.6 4.3 0.00 0.00 0.00 57 1010.7
20260904000307 92 233 0.9 0.9 0.00 0.00 0.00 55 1010.8
20260903235802 93 308 2.6 4.3 0.00 0.00 0.00 52 1010.8
20260903235259 93 284 2.6 4.3 0.00 0.00 0.00 51 1010.5
20260903234757 93 208 1.7 2.6 0.00 0.00 0.00 50 1010.5
20260903234254 93 251 0.9 0.9 0.00 0.00 0.00 49 1010.5
20260903233750 93 231 1.7 2.6 0.00 0.00 0.00 49 1010.6
20260903233246 94 187 1.7 4.3 0.00 0.00 0.00 48 1010.7
20260903232744 94 227 0.0 0.9 0.00 0.00 0.00 49 1010.6
20260903232241 94 202 0.9 0.9 0.00 0.00 0.00 50 1010.5
20260903231739 94 213 0.9 1.7 0.00 0.00 0.00 50 1010.6
20260903231235 94 215 1.7 1.7 0.00 0.00 0.00 50 1010.2
20260903230730 94 214 0.9 0.9 0.00 0.00 0.00 50 1010.4
20260903230225 93 237 0.9 1.7 0.00 0.00 0.00 51 1010.2
20260903225722 93 214 0.9 1.7 0.00 0.00 0.00 50 1010.3
20260903225218 94 213 4.3 5.2 0.00 0.00 0.00 49 1010.2
20260903224714 93 206 0.9 1.7 0.00 0.00 0.00 50 1010.3
20260903224210 94 306 1.7 2.6 0.00 0.00 0.00 50 1010.3
20260903223705 94 217 1.7 4.3 0.00 0.00 0.00 50 1010.3
20260903223203 94 218 0.9 0.9 0.00 0.00 0.00 49 1010.1
20260903222703 95 77 1.7 1.7 0.00 0.00 0.00 49 1010.1